Location: Newark
(25.6667°N, 138.4167°E)
Time: 10:57:26
(UTC+00:00)

N. Korean satellite - Pass Details

Date: 18 September 2019
Orbit: 455 x 508 km, 97.2° (Epoch: 14 October)

Event Time Altitude Azimuth Distance (km) Brightness Sun altitude
Rises 20:02:50 0° 25° (NNE) 2,466 10.6 -7.7°
Reaches altitude 10° 20:05:05 10° 38° (NE) 1,591 9.9 -7.2°
Maximum altitude 20:08:01 27° 98° (E) 912 9.0 -6.5°
Drops below altitude 10° 20:10:57 10° 158° (SSE) 1,593 9.4 -5.9°
Sets 20:13:12 0° 170° (S) 2,469 10.2 -5.4°
